Time,TemperatureF,DewpointF,PressureIn,WindDirection,WindDirectionDegrees,WindSpeedMPH,WindSpeedGustMPH,Humidity,HourlyPrecipIn,Conditions,Clouds,dailyrainin,SolarRadiationWatts/m^2,SoftwareType,DateUTC
2013-03-10 00:00:00,35.0,32.0,-100.00,SE,135,9.0,-999.0,90,0.02,,,-99.99,0.000000,,2013-03-10 05:00:00,
2013-03-10 00:42:00,35.0,32.0,-100.00,SE,135,9.0,-999.0,90,0.02,,,-99.99,0.000000,,2013-03-10 05:42:00,
2013-03-10 00:52:00,35.0,32.0,-100.00,SE,135,9.0,-999.0,90,0.02,,,-99.99,0.000000,,2013-03-10 05:52:00,
2013-03-10 01:00:00,35.0,32.0,-100.00,SE,135,6.0,-999.0,88,-99.99,,,-99.99,0.000000,,2013-03-10 06:00:00,
2013-03-10 01:42:00,35.0,32.0,-100.00,SE,135,6.0,-999.0,88,-99.99,,,-99.99,0.000000,,2013-03-10 06:42:00,
2013-03-10 01:52:00,35.0,32.0,-100.00,SE,135,6.0,-999.0,88,-99.99,,,-99.99,0.000000,,2013-03-10 06:52:00,
2013-03-10 17:00:00,37.0,36.0,-100.00,NNE,22,5.0,-999.0,94,0.01,,,-99.99,82.360001,,2013-03-10 21:00:00,
2013-03-10 17:43:00,37.0,36.0,-100.00,NNE,22,5.0,-999.0,94,0.01,,,-99.99,82.360001,,2013-03-10 21:43:00,
2013-03-10 17:53:00,37.0,36.0,-100.00,NNE,22,5.0,-999.0,94,0.01,,,-99.99,82.360001,,2013-03-10 21:53:00,
2013-03-10 18:00:00,36.0,34.0,-100.00,NE,45,7.0,-999.0,95,-99.99,,,-99.99,55.680000,,2013-03-10 22:00:00,
2013-03-10 18:43:00,36.0,34.0,-100.00,NE,45,7.0,-999.0,95,-99.99,,,-99.99,55.680000,,2013-03-10 22:43:00,
2013-03-10 18:53:00,36.0,34.0,-100.00,NE,45,7.0,-999.0,95,-99.99,,,-99.99,55.680000,,2013-03-10 22:53:00,
2013-03-10 19:00:00,35.0,34.0,-100.00,NE,45,8.0,-999.0,95,0.02,,,-99.99,18.559999,,2013-03-10 23:00:00,
2013-03-10 19:33:00,35.0,34.0,-100.00,NE,45,8.0,-999.0,95,0.02,,,-99.99,18.559999,,2013-03-10 23:33:00,
2013-03-10 19:43:00,35.0,34.0,-100.00,NE,45,8.0,-999.0,95,0.02,,,-99.99,18.559999,,2013-03-10 23:43:00,
2013-03-10 19:53:00,35.0,34.0,-100.00,NE,45,8.0,-999.0,95,0.02,,,-99.99,18.559999,,2013-03-10 23:53:00,
2013-03-10 20:00:00,35.0,34.0,-100.00,NE,45,6.0,-999.0,95,0.09,,,-99.99,1.160000,,2013-03-11 00:00:00,
2013-03-10 20:43:00,35.0,34.0,-100.00,NE,45,6.0,-999.0,95,0.09,,,-99.99,1.160000,,2013-03-11 00:43:00,
2013-03-10 20:53:00,35.0,34.0,-100.00,NE,45,6.0,-999.0,95,0.09,,,-99.99,1.160000,,2013-03-11 00:53:00,
2013-03-10 21:00:00,34.0,33.0,-100.00,NNE,22,6.0,-999.0,96,0.08,,,-99.99,0.000000,,2013-03-11 01:00:00,
2013-03-10 21:43:00,34.0,33.0,-100.00,NNE,22,6.0,-999.0,96,0.08,,,-99.99,0.000000,,2013-03-11 01:43:00,
2013-03-10 21:53:00,34.0,33.0,-100.00,NNE,22,6.0,-999.0,96,0.08,,,-99.99,0.000000,,2013-03-11 01:53:00,
2013-03-10 22:00:00,34.0,33.0,-100.00,NE,45,7.0,-999.0,96,0.05,,,-99.99,0.000000,,2013-03-11 02:00:00,
2013-03-10 22:42:00,34.0,33.0,-100.00,NE,45,7.0,-999.0,96,0.05,,,-99.99,0.000000,,2013-03-11 02:42:00,
2013-03-10 22:53:00,34.0,33.0,-100.00,NE,45,7.0,-999.0,96,0.05,,,-99.99,0.000000,,2013-03-11 02:53:00,
2013-03-10 23:00:00,34.0,33.0,-100.00,NE,45,9.0,-999.0,96,0.02,,,-99.99,0.000000,,2013-03-11 03:00:00,
2013-03-10 23:43:00,34.0,33.0,-100.00,NE,45,9.0,-999.0,96,0.02,,,-99.99,0.000000,,2013-03-11 03:43:00,
2013-03-10 23:53:00,34.0,33.0,-100.00,NE,45,9.0,-999.0,96,0.02,,,-99.99,0.000000,,2013-03-11 03:53:00,